Location: Kellogg
(38.0159°N, 90.0546°W)
Time: 21:47:00
(UTC+00:00)

Vanguard 2 - Pass Details

Date: 28 September 2024
Orbit: 552 x 2910 km, 32.9° (Epoch: 09 October)

Event Time Altitude Azimuth Distance (km) Brightness Sun altitude
Rises 09:33:37 0° 265° (W) 2,716 - -27.9°
Reaches altitude 10° 09:36:01 10° 250° (WSW) 1,871 - -27.5°
Maximum altitude 09:39:20 23° 196° (SSW) 1,352 - -26.8°
Exits shadow 09:41:24 18° 161° (SSE) 1,703 9.3 -26.5°
Drops below altitude 10° 09:43:22 10° 143° (SE) 2,324 10.2 -26.1°
Sets 09:46:46 0° 130° (SE) 3,581 11.4 -25.5°
